Location: Arcizac
(43.0933°N, 0.0112°E)
Time: 23:28:29
(UTC+00:00)

Daily predictions for brighter satellites

Satellite Brightness Start Highest point End
(mag) Time Altitude Azimuth Time Altitude Azimuth Time Altitude Azimuth
Radarsat Rocket 4.0 16:47:56 10° SSE 16:54:01 89° ENE 16:59:52 10° NNW
Envisat 4.0 16:50:41 10° ESE 16:54:44 24° ENE 16:58:47 10° NNE
Cosmos 2242 Rocket 3.8 16:50:59 10° S 16:55:28 58° E 16:59:59 10° NNE
Aureole 1 Rocket 2.4 16:53:17 10° S 16:56:10 50° ESE 16:59:24 10° NNE
Cosmos 1092 Rocket 4.3 16:50:30 10° SSE 16:56:28 47° E 17:02:25 10° NNE
Cosmos 292 Rocket 3.8 16:52:04 10° NNW 16:56:54 60° ENE 17:01:41 10° SSE
Cosmos 2251 Rocket 4.1 16:52:01 10° SSW 16:57:14 59° WNW 17:02:28 10° NNE
Okean 1-7 4.0 16:53:33 10° SSE 16:57:16 28° E 17:01:01 10° NNE
Cosmos 1908 Rocket 3.8 16:56:09 10° N 17:00:24 46° ENE 17:04:35 10° SSE
Cosmos 407 Rocket 4.1 16:57:35 10° S 17:02:21 38° ESE 17:07:12 10° NE
Cosmos 1992 Rocket 4.5 16:58:55 10° NNW 17:04:07 69° WSW 17:09:18 10° S
COSMO-SKYMED 1 4.1 17:06:16 10° NE 17:09:15 18° E 17:12:13 10° SE
Cosmos 1980 4.4 17:04:25 10° SW 17:09:56 55° WNW 17:15:31 10° NNE
YAOGAN 1 4.2 17:09:51 10° E 17:11:58 13° ENE 17:14:04 10° NNE
CZ-4 R/B 2.9 17:10:50 10° E 17:12:59 15° ENE 17:15:08 10° NNE
Okean-O 3.3 17:09:04 10° SE 17:13:03 34° ENE 17:17:02 10° N
FALCON 9 DEB 4.3 17:13:42 10° W 17:16:56 34° NNW 17:19:57 11° NE
Cosmos 1441 Rocket 3.4 17:13:24 10° N 17:17:05 47° ENE 17:20:41 10° SSE
H-2A R/B 2.6 17:13:42 10° SSE 17:17:20 60° ENE 17:20:58 10° N
NOAA 12 4.3 17:14:54 10° SE 17:19:57 48° ENE 17:25:00 10° N
Cosmos 2297 3.7 17:17:40 10° NNW 17:23:22 68° ENE 17:28:59 10° SSE
Cosmos 921 Rocket 3.0 17:20:08 10° N 17:24:24 59° ENE 17:28:42 10° SSE
Genesis I 3.3 17:21:21 10° NW 17:25:14 76° WSW 17:29:03 10° SSE
ISS 0.2 17:26:58 10° WSW 17:27:26 10° SW 17:27:52 10° SW
Cosmos 1975 3.8 17:25:28 10° NNE 17:28:50 26° ENE 17:32:13 10° SE
Cosmos 1666 2.8 17:27:06 10° NNW 17:30:50 76° W 17:34:33 10° S
Lacrosse 5 3.1 17:32:20 10° S 17:36:31 26° ESE 17:38:59 18° E
BREEZE-M DEB (TANK) 4.4 17:37:20 10° W 17:39:15 21° SW 17:41:07 10° SSE
YAOGAN 6 3.1 17:37:18 10° SE 17:40:33 34° ENE 17:43:52 10° N
Cosmos 1553 Rocket 4.2 17:37:07 10° N 17:43:18 48° ENE 17:49:28 10° SSE
STARLINK-48 4.1 17:42:13 10° SSW 17:45:52 41° SE 17:47:35 25° E
Cosmos 1867 3.5 17:41:18 10° NNW 17:46:45 65° NE 17:52:09 10° SE
CZ-4C R/B 3.1 17:43:50 10° SSE 17:47:48 25° ESE 17:49:23 21° E
Cosmos 2026 Rocket 3.9 17:44:40 10° S 17:50:43 88° E 17:56:50 10° N
Cosmos 1943 4.1 17:50:43 10° SSE 17:55:23 27° ESE 17:56:42 25° E
Cosmos 1782 Rocket 3.6 17:51:17 10° N 17:55:39 78° W 17:59:57 10° S
ATLAS 5 CENTAUR R/B 2.9 17:55:46 10° W 17:57:22 17° NW 17:58:07 15° NNW
SKYMED 2 3.6 17:53:59 14° NNE 17:57:39 57° E 18:01:55 10° S
USA 215 3.8 17:54:37 16° NE 17:59:46 52° NNW 18:06:03 10° WSW
Cosmos 1190 Rocket 4.1 17:54:35 10° SSW 17:59:46 76° WNW 18:04:56 10° NNE
Cosmos 676 Rocket 3.9 17:57:25 10° S 18:02:32 69° ESE 18:06:19 19° NNE
Cosmos 614 Rocket 4.5 17:58:07 10° SW 18:03:07 58° WNW 18:08:09 10° NNE
Meteor 1-18 Rocket 4.2 18:00:37 10° S 18:06:20 89° W 18:11:58 10° N
BREEZE-M R/B 2.9 18:03:13 10° WNW 18:07:46 43° NNE 18:08:07 41° NNE
Cosmos 1954 Rocket 3.9 18:03:29 10° SSW 18:08:37 74° ESE 18:12:08 21° NNE
Cosmos 1743 3.1 18:04:47 10° NNW 18:08:39 66° W 18:12:29 10° S
Cosmos 2369 Rocket 2.4 18:03:19 10° NNW 18:08:45 47° ENE 18:13:17 15° SE
Okean 2 Rocket 3.0 18:05:59 10° N 18:10:29 65° E 18:14:57 10° SSE
Cosmos 2221 Rocket 3.4 18:09:10 10° S 18:13:37 81° E 18:16:58 18° N
SL-16 R/B 3.1 18:08:49 10° SW 18:14:18 48° WNW 18:19:42 11° NNE
STARLINK-61 4.4 18:10:45 10° SSW 18:14:20 32° SE 18:14:22 32° SE
Cosmos 1417 Rocket 4.3 18:09:04 10° N 18:15:14 80° E 18:21:24 10° S
Sich 1 Rocket 4.0 18:11:24 10° NNW 18:15:45 63° W 18:20:04 10° S
IRIDIUM 104 4.4 18:13:19 10° SSE 18:18:18 49° E 18:20:58 26° NNE
Lacrosse 5 rocket 3.7 18:18:31 10° NNW 18:20:06 12° N 18:20:34 12° N
USA 116 4.3 18:17:14 20° NNE 18:20:48 66° E 18:25:37 10° S
CZ-4 R/B 4.4 18:16:52 10° SSE 18:21:02 87° WSW 18:25:13 10° NNW
Cosmos 1603 3.7 18:15:53 10° S 18:21:29 60° ESE 18:23:46 35° NE
Cosmos 2237 Rocket 4.4 18:18:34 10° W 18:22:30 19° NW 18:26:28 10° N
FengYun 1-2 T 4.3 18:17:24 10° S 18:22:52 79° WSW 18:28:25 10° NNW
Abrixas rocket 2.5 18:20:32 10° WSW 18:23:04 57° W 18:23:04 57° W
STARLINK-43 4.0 18:20:08 10° WSW 18:23:42 43° NNW 18:24:11 41° N
SL-4 R/B 3.1 18:22:09 10° NW 18:25:07 30° N 18:25:07 30° N
IRIDIUM 114 4.3 18:22:18 10° SSE 18:27:25 60° E 18:30:06 28° NNE
Cosmos 1140 Rocket 4.2 18:24:40 10° SW 18:29:39 51° WNW 18:33:39 16° N
Cosmos 1943 Rocket 2.0 18:25:23 10° NNW 18:31:03 83° ENE 18:36:38 10° SSE
USA 267 3.6 18:26:45 10° SE 18:33:14 66° SW 18:39:45 10° NW
Envisat 4.2 18:28:41 10° S 18:33:30 43° W 18:38:20 10° NNW
Cosmos 1741 Rocket 4.2 18:30:06 10° S 18:34:47 48° ESE 18:34:47 48° ESE
IRIDIUM 103 4.2 18:31:23 10° S 18:36:34 73° E 18:39:16 29° NNE
USA 81 4.1 18:32:04 10° SSE 18:36:43 53° ESE 18:36:43 53° ESE
NOSS 3-1 (C) 4.0 18:31:36 10° NNW 18:39:04 62° NE 18:43:01 33° ESE
STARLINK-80 4.1 18:39:04 10° WSW 18:42:26 49° NW 18:42:26 49° NW
Meteor 2-13 Rocket 4.5 18:36:59 10° SSW 18:43:02 77° W 18:49:10 10° N
CSL-04 Rocket 3.6 18:37:56 10° SSE 18:43:12 81° WSW 18:48:33 10° NNW
Meteor 2-4 Rocket 3.7 18:37:42 10° S 18:43:35 90° WNW 18:47:10 24° N
Cosmos 1655 Rocket 4.1 18:39:06 10° SSW 18:45:24 74° W 18:51:40 10° N
COSMO-SKYMED 1 3.7 18:42:33 17° N 18:45:36 42° WNW 18:49:42 10° SW
Cosmos 1300 Rocket 3.7 18:42:23 10° NNW 18:46:42 70° W 18:50:58 10° S
YAOGAN 1 2.9 18:43:14 10° S 18:47:31 64° W 18:51:50 10° NNW
CZ-4 R/B 2.3 18:43:57 10° S 18:47:40 44° W 18:51:22 10° NNW
Gbstr 26 Del rocket 3.8 18:41:11 10° SW 18:48:18 74° SE 18:49:19 61° E
USA 229 DEB 3.7 18:42:42 10° NNW 18:49:58 71° NE 18:52:32 44° ESE
USA 229 3.7 18:42:48 10° NNW 18:50:03 71° NE 18:52:32 45° ESE
Cosmos 1850 Rocket 3.9 18:47:00 10° SSW 18:51:53 71° SE 18:51:53 71° SE
IRIDIUM 106 4.4 18:49:39 10° S 18:54:52 77° W 18:57:27 31° N
NOSS 3-1 (A) 4.1 18:48:06 10° NNW 18:55:28 55° NE 18:56:30 52° ENE
Cosmos 2344 4.4 18:49:07 10° NNW 18:58:47 66° NE 19:05:28 33° ESE
Cosmos 2263 4.3 19:09:12 10° NNW 19:15:00 74° WSW 19:15:05 74° WSW
Lacrosse 5 2.6 19:14:07 10° WSW 19:18:13 51° W 19:18:13 51° W
Cosmos 2266 Rocket 4.5 19:14:17 10° SSW 19:20:36 59° W 19:24:58 21° N
CZ-3B R/B 3.9 19:17:41 10° SSW 19:19:57 16° S 19:19:57 16° S
CZ-4C R/B 3.1 19:30:52 10° WSW 19:34:36 42° W 19:34:36 42° W
Cosmos 1943 4.1 19:33:45 10° SW 19:38:34 44° WNW 19:38:34 44° WNW
Cosmos 2369 Rocket 4.1 19:47:53 10° NW 19:52:28 26° WSW 19:55:22 17° SW
